World > North America > United States > Illinois

Ottawa, Illinois Regional Weather

Lat: 41.35N, Lon: 88.84W
Wx Zone: ILZ019
Warning NWS WEATHER ALERT - (More Info. Click Here) Warning
Feedback

Ottawa, IL Regional Weather

Expires:202007081300;;514766
ASUS43 KLOT 081209
RWRIL 

ILLINOIS REGIONAL WEATHER ROUNDUP
NATIONAL WEATHER SERVICE CHICAGO/ROMEOVILLE IL
700 AM CDT WED JUL 08 2020

NOTE: "FAIR" INDICATES FEW OR NO CLOUDS BELOW 12,000 FEET WITH NO
SIGNIFICANT WEATHER AND/OR OBSTRUCTIONS TO VISIBILITY.

* THESE STATIONS ARE NOT UNDER NWS QUALITY CONTROL. THEY ALSO MAY NOT
  REPORT WEATHER SUCH AS PRECIPITATION OR FOG.


ILZ005-006-012>014-019>023-081300-
NORTHEAST ILLINOIS
  
CITY           SKY/WX    TMP DP  RH WIND       PRES   REMARKS
CHICAGO-OHARE  PTSUNNY   78  70  76 NE6       29.96S HX  80           
6HR MIN TEMP:  74; 6HR MAX TEMP:  78;                                

CHICAGO-MIDWAY PTSUNNY   78  68  71 CALM      29.96R HX  80           
6HR MIN TEMP:  75; 6HR MAX TEMP:  78;                                

AURORA         SUNNY     71  70  96 CALM      29.97R                  
6HR MIN TEMP:  68; 6HR MAX TEMP:  71;                                

JOLIET*        MOSUNNY   74  71  89 CALM      29.97R                  
WAUKEGAN       LGT RAIN  74  69  85 E5        29.97R                  
6HR MIN TEMP:  67; 6HR MAX TEMP:  74; 6HR PCP: TRACE;                

DUPAGE AIRPORT MOSUNNY   71  69  93 CALM      29.96R                  
6HR MIN TEMP:  70; 6HR MAX TEMP:  71;                                

KANKAKEE*      MOSUNNY   73  68  86 CALM      29.97R                  
WHEELING       PTSUNNY   75  71  87 N3        29.98R                  
6HR MIN TEMP:  73; 6HR MAX TEMP:  75;                                

MORRIS*        SUNNY     72  72 100 CALM      29.96R                  
ROMEOVILLE*    MOSUNNY   73  71  93 CALM      29.97S                  
NORTHERLY ISL    N/A     76  71  85 NE3         N/A                   
$$


SKY/WX - Weather  TMP - Temperature  DP - Dew Point  RH - Relative Humidity
WIND - Wind Direction/Speed PRES - Barometric Pressure VSB - Visibility
WCI - Wind Chill Index E13G22 Wind - East Wind 13 mph/Gusts of 22 mph
Ottawa Weather Map
UTC Time: 7/8/2020, 12:57
Your Time: